Regional Weather Roundup
Issued by NWS

Home | Current Version | Previous Version | Graphics & Text | Print | Product List | Glossary On
Versions: 1 2 3 4 5 6 7 8 9 10 11 12 13 14 15 16 17 18 19 20 21 22 23 24 25 26 27 28 29 30 31 32 33 34 35 36 37 38 39 40 41 42 43 44 45 46 47 48 49 50
000
ASUS43 KBIS 251420
RWRND

NORTH DAKOTA REGIONAL WEATHER ROUNDUP
NATIONAL WEATHER SERVICE BISMARCK ND
900 AM CDT SAT APR 25 2015

NOTE: "FAIR" INDICATES FEW OR NO CLOUDS BELOW 12,000 FEET WITH NO
SIGNIFICANT WEATHER AND/OR OBSTRUCTIONS TO VISIBILITY.


NDZ001>003-009>011-017-251500-
NORTHWEST NORTH DAKOTA

CITY           SKY/WX    TMP DP  RH WIND       PRES   REMARKS
WILLISTON      CLOUDY    47  41  80 SE8       29.73S
MINOT          CLOUDY    42  40  92 E13       29.80F FOG
MINOT AFB      CLOUDY    41  41 100 E9        29.80S
$$

NDZ018>021-031>035-040>046-251500-
SOUTHWEST NORTH DAKOTA

CITY           SKY/WX    TMP DP  RH WIND       PRES   REMARKS
BISMARCK       CLOUDY    44  41  89 E15       29.79R
DICKINSON      FOG       42  41  96 E15       29.71S VSB 1/4
GARRISON         N/A     43  41  93 SE14      29.78R
HETTINGER ARPT FOG       42  41  96 E12       29.73R VSB 1/4
$$

NDZ004>008-012>016-024-026-027-054-251500-
NORTHEAST NORTH DAKOTA

CITY           SKY/WX    TMP DP  RH WIND       PRES   REMARKS
GRAND FORKS    CLOUDY    46  34  61 E10       29.88R
GRND FRKS AFB  CLOUDY    45  32  62 SE8       29.88R
DEVILS LAKE    CLOUDY    43  32  65 E15       29.85F
$$

NDZ022-023-025-028>030-036>039-047>053-251500-
SOUTHEAST NORTH DAKOTA

CITY           SKY/WX    TMP DP  RH WIND       PRES   REMARKS
FARGO          CLOUDY    45  37  73 E9        29.84S
JAMESTOWN      CLOUDY    42  38  85 E12       29.81S
$$




USA.gov is the U.S. government's official web portal to all federal, state and local government web resources and services.